Location: Musselshell
(46.5176°N, 108.0911°W)
Time: 06:19:09
(UTC+00:00)

AO-73 - Pass Details

Date: 26 June 2022
Orbit: 579 x 657 km, 97.6° (Epoch: 09 August)

Event Time Altitude Azimuth Distance (km) Brightness Sun altitude
Rises 10:38:29 0° 22° (NNE) 2,935 ? -6.4°
Reaches altitude 10° 10:40:53 10° 32° (NNE) 2,034 ? -6.1°
Maximum altitude 10:44:52 32° 96° (E) 1,117 ? -5.6°
Drops below altitude 10° 10:48:53 10° 159° (SSE) 2,052 ? -5.1°
Sets 10:51:18 0° 170° (S) 2,964 ? -4.8°
